When you browse on this site, cookies collect data to enhance your experience and personalize the content and advertising you see.
Visit our Privacy Policy to learn more. By continuing to use the site, you agree to this use of cookies and data.
  • In Schweiz
  • Länderverzeichnis
  • Für 7 Tage
  • Wassertemperatur
  • Wetterkarte
  • Widgets
  • user-avatar
    Anmelden

    Stündliche Wetter Ladlou

    Heute, 11 Dezember, Mittwoch

    Zeit Temperatur Niederschläge Wind Luftdruck Luftfeuchtigkeit
    00:00 -5°C° 0.1 mm 3 m/S 720 mmHg 76%
    01:00 -6°C° 0.1 mm 3 m/S 721 mmHg 70%
    02:00 -6°C° 0.1 mm 3 m/S 721 mmHg 70%
    03:00 -7°C° 0.1 mm 3 m/S 721 mmHg 69%
    04:00 -6°C° 0.1 mm 2 m/S 722 mmHg 69%
    05:00 -6°C° 0 mm 2 m/S 722 mmHg 72%
    06:00 -7°C° 0 mm 2 m/S 722 mmHg 75%
    07:00 -6°C° 0 mm 1 m/S 723 mmHg 77%
    08:00 -6°C° 0 mm 1 m/S 723 mmHg 74%
    09:00 -4°C° 0 mm 1 m/S 723 mmHg 71%
    10:00 -4°C° 0 mm 1 m/S 724 mmHg 67%
    11:00 -3°C° 0 mm 1 m/S 723 mmHg 63%
    12:00 -5°C° 0 mm 2 m/S 723 mmHg 59%
    13:00 -5°C° 0 mm 3 m/S 722 mmHg 55%
    14:00 -5°C° 0 mm 2 m/S 722 mmHg 62%
    15:00 -5°C° 0 mm 2 m/S 722 mmHg 69%
    16:00 -6°C° 0 mm 2 m/S 722 mmHg 75%
    17:00 -7°C° 0.1 mm 3 m/S 722 mmHg 74%
    18:00 -7°C° 0.1 mm 4 m/S 723 mmHg 73%
    19:00 -7°C° 0.1 mm 5 m/S 723 mmHg 72%
    20:00 -9°C° 0 mm 6 m/S 724 mmHg 70%
    21:00 -10°C° 0 mm 6 m/S 724 mmHg 68%
    22:00 -11°C° 0 mm 6 m/S 724 mmHg 66%
    23:00 -11°C° 0 mm 6 m/S 725 mmHg 64%

    Morgen, 12 Dezember, Donnerstag

    Zeit Temperatur Niederschläge Wind Luftdruck Luftfeuchtigkeit
    00:00 -12°C° 0 mm 6 m/S 726 mmHg 63%
    01:00 -14°C° 0 mm 6 m/S 727 mmHg 61%
    02:00 -13°C° 0 mm 5 m/S 728 mmHg 61%
    03:00 -13°C° 0 mm 5 m/S 729 mmHg 61%
    04:00 -14°C° 0 mm 5 m/S 729 mmHg 61%
    05:00 -14°C° 0 mm 4 m/S 730 mmHg 62%
    06:00 -13°C° 0 mm 3 m/S 731 mmHg 62%
    07:00 -12°C° 0 mm 2 m/S 732 mmHg 63%
    08:00 -10°C° 0 mm 2 m/S 733 mmHg 60%
    09:00 -10°C° 0 mm 2 m/S 733 mmHg 58%
    10:00 -10°C° 0 mm 3 m/S 734 mmHg 55%
    11:00 -8°C° 0 mm 2 m/S 734 mmHg 56%
    12:00 -8°C° 0 mm 2 m/S 733 mmHg 56%
    13:00 -7°C° 0 mm 2 m/S 733 mmHg 57%
    14:00 -6°C° 0 mm 1 m/S 733 mmHg 61%
    15:00 -6°C° 0 mm 1 m/S 733 mmHg 66%
    16:00 -7°C° 0 mm 1 m/S 733 mmHg 70%
    17:00 -7°C° 0 mm 1 m/S 733 mmHg 73%
    18:00 -7°C° 0 mm 1 m/S 733 mmHg 75%
    19:00 -7°C° 0 mm 1 m/S 733 mmHg 78%
    20:00 -7°C° 0 mm 1 m/S 732 mmHg 79%
    21:00 -7°C° 0 mm 1 m/S 732 mmHg 80%
    22:00 -7°C° 0 mm 1 m/S 732 mmHg 81%
    23:00 -7°C° 0 mm 1 m/S 731 mmHg 81%

    übermorgen, 13 Dezember, Freitag

    Zeit Temperatur Niederschläge Wind Luftdruck Luftfeuchtigkeit
    00:00 -8°C° 0 mm 2 m/S 731 mmHg 81%
    01:00 -8°C° 0 mm 2 m/S 731 mmHg 82%
    02:00 -8°C° 0 mm 2 m/S 730 mmHg 82%
    03:00 -8°C° 0 mm 2 m/S 730 mmHg 82%
    04:00 -8°C° 0 mm 2 m/S 729 mmHg 82%
    05:00 -7°C° 0 mm 2 m/S 729 mmHg 85%
    06:00 -7°C° 0 mm 2 m/S 729 mmHg 88%
    07:00 -7°C° 0 mm 2 m/S 729 mmHg 91%
    08:00 -5°C° 0 mm 2 m/S 729 mmHg 88%
    09:00 -5°C° 0 mm 3 m/S 729 mmHg 85%
    10:00 -2°C° 0 mm 3 m/S 728 mmHg 82%
    11:00 -1°C° 0 mm 3 m/S 728 mmHg 83%
    12:00 -1°C° 0 mm 3 m/S 727 mmHg 84%
    13:00 0°C° 0 mm 3 m/S 727 mmHg 85%
    14:00 -1°C° 0 mm 2 m/S 726 mmHg 88%
    15:00 -1°C° 0 mm 2 m/S 725 mmHg 92%
    16:00 0°C° 0 mm 1 m/S 725 mmHg 95%
    17:00 +1°C° 0 mm 1 m/S 725 mmHg 96%
    18:00 +1°C° 0 mm 1 m/S 725 mmHg 96%
    19:00 +1°C° 0 mm 1 m/S 725 mmHg 97%
    20:00 +1°C° 0.1 mm 1 m/S 724 mmHg 97%
    21:00 +1°C° 0.1 mm 1 m/S 724 mmHg 98%
    22:00 +1°C° 0.1 mm 1 m/S 723 mmHg 98%
    23:00 +1°C° 0.1 mm 1 m/S 722 mmHg 98%

    14 Dezember, Samstag

    Zeit Temperatur Niederschläge Wind Luftdruck Luftfeuchtigkeit
    00:00 +2°C° 0.1 mm 1 m/S 721 mmHg 98%
    01:00 +2°C° 0.1 mm 1 m/S 721 mmHg 98%
    02:00 +2°C° 0.2 mm 1 m/S 720 mmHg 98%
    03:00 +2°C° 0.2 mm 1 m/S 719 mmHg 99%
    04:00 +3°C° 0.2 mm 1 m/S 718 mmHg 99%
    05:00 +3°C° 1.9 mm 1 m/S 717 mmHg 99%
    06:00 +3°C° 1.9 mm 1 m/S 715 mmHg 98%
    07:00 +3°C° 1.9 mm 1 m/S 714 mmHg 98%
    08:00 +3°C° 4.7 mm 2 m/S 713 mmHg 98%
    09:00 +2°C° 4.7 mm 3 m/S 711 mmHg 98%
    10:00 +3°C° 4.7 mm 3 m/S 710 mmHg 98%
    11:00 +3°C° 1.5 mm 3 m/S 708 mmHg 98%
    12:00 +4°C° 1.5 mm 2 m/S 706 mmHg 98%
    13:00 +3°C° 1.5 mm 2 m/S 705 mmHg 98%
    14:00 +3°C° 0 mm 2 m/S 704 mmHg 98%
    15:00 +4°C° 0 mm 1 m/S 704 mmHg 98%
    16:00 +4°C° 0 mm 1 m/S 703 mmHg 98%
    17:00 +3°C° 0 mm 1 m/S 703 mmHg 98%
    18:00 +3°C° 0 mm 1 m/S 703 mmHg 98%
    19:00 +3°C° 0 mm 1 m/S 703 mmHg 98%
    20:00 +2°C° 0.4 mm 2 m/S 703 mmHg 97%
    21:00 +2°C° 0.4 mm 3 m/S 703 mmHg 96%
    22:00 +1°C° 0.4 mm 4 m/S 704 mmHg 95%
    23:00 +1°C° 0.2 mm 4 m/S 704 mmHg 93%

    15 Dezember, Sonntag

    Zeit Temperatur Niederschläge Wind Luftdruck Luftfeuchtigkeit
    00:00 +1°C° 0.2 mm 5 m/S 705 mmHg 91%
    01:00 +1°C° 0.2 mm 5 m/S 705 mmHg 90%
    02:00 -1°C° 0 mm 6 m/S 706 mmHg 87%
    03:00 -1°C° 0 mm 6 m/S 706 mmHg 84%
    04:00 -2°C° 0 mm 7 m/S 707 mmHg 82%
    05:00 -2°C° 0 mm 7 m/S 707 mmHg 82%
    06:00 -2°C° 0 mm 7 m/S 708 mmHg 83%
    07:00 -3°C° 0 mm 6 m/S 708 mmHg 84%
    08:00 -2°C° 0 mm 7 m/S 709 mmHg 81%
    09:00 -2°C° 0 mm 7 m/S 709 mmHg 79%
    10:00 -2°C° 0 mm 8 m/S 710 mmHg 77%
    11:00 -2°C° 0 mm 8 m/S 710 mmHg 75%
    12:00 -2°C° 0 mm 8 m/S 710 mmHg 73%
    13:00 -2°C° 0 mm 8 m/S 710 mmHg 71%
    14:00 -3°C° 0 mm 7 m/S 711 mmHg 71%
    15:00 -4°C° 0 mm 7 m/S 711 mmHg 71%
    16:00 -5°C° 0 mm 6 m/S 711 mmHg 72%
    17:00 -6°C° 0 mm 6 m/S 712 mmHg 72%
    18:00 -6°C° 0 mm 6 m/S 713 mmHg 72%
    19:00 -7°C° 0 mm 7 m/S 713 mmHg 72%
    20:00 -8°C° 0 mm 7 m/S 714 mmHg 70%
    21:00 -8°C° 0 mm 7 m/S 715 mmHg 67%
    22:00 -9°C° 0 mm 7 m/S 716 mmHg 64%
    23:00 -9°C° 0 mm 6 m/S 716 mmHg 64%

    16 Dezember, Montag

    Zeit Temperatur Niederschläge Wind Luftdruck Luftfeuchtigkeit
    00:00 -10°C° 0 mm 6 m/S 717 mmHg 63%
    01:00 -10°C° 0 mm 6 m/S 718 mmHg 62%
    02:00 -11°C° 0 mm 6 m/S 719 mmHg 61%
    03:00 -11°C° 0 mm 6 m/S 719 mmHg 59%
    04:00 -11°C° 0 mm 6 m/S 720 mmHg 58%
    05:00 -11°C° 0 mm 5 m/S 721 mmHg 56%
    06:00 -12°C° 0 mm 5 m/S 722 mmHg 55%
    07:00 -12°C° 0 mm 5 m/S 722 mmHg 53%
    08:00 -11°C° 0 mm 5 m/S 723 mmHg 50%
    09:00 -11°C° 0 mm 5 m/S 724 mmHg 47%
    10:00 -9°C° 0 mm 4 m/S 725 mmHg 43%
    11:00 -9°C° 0 mm 4 m/S 725 mmHg 43%
    12:00 -8°C° 0 mm 4 m/S 725 mmHg 42%
    13:00 -8°C° 0 mm 4 m/S 725 mmHg 41%
    14:00 -7°C° 0 mm 3 m/S 725 mmHg 43%
    15:00 -6°C° 0 mm 2 m/S 725 mmHg 45%
    16:00 -7°C° 0 mm 2 m/S 725 mmHg 48%
    17:00 -6°C° 0 mm 1 m/S 726 mmHg 50%
    18:00 -6°C° 0 mm 1 m/S 726 mmHg 53%
    19:00 -6°C° 0 mm 1 m/S 726 mmHg 55%
    20:00 -6°C° 0 mm 0 m/S 725 mmHg 55%
    21:00 -6°C° 0 mm 0 m/S 725 mmHg 55%
    22:00 -6°C° 0 mm 0 m/S 725 mmHg 55%
    23:00 -6°C° 0.2 mm 0 m/S 724 mmHg 55%
    Mehr zeigen